Regional Weather Roundup
Issued by NWS Sioux Falls, SD

Home | Current Version | Previous Version | Graphics & Text | Print | Product List | Glossary Off
Versions: 1 2 3 4 5 6 7 8 9 10 11 12 13 14 15 16 17 18 19 20 21 22 23 24 25 26 27 28 29 30 31 32 33 34 35 36 37 38 39 40 41 42 43 44 45 46 47 48 49 50

000
ASUS43 KFSD 071310
RWRFSD

WEATHER ROUNDUP FOR SE SOUTH DAKOTA/SW MINNESOTA/NW IOWA
NATIONAL WEATHER SERVICE SIOUX FALLS SD
700 AM CST SUN FEB 07 2016

NOTE: "FAIR" INDICATES FEW OR NO CLOUDS BELOW 12,000 FEET WITH NO
SIGNIFICANT WEATHER AND OR OBSTRUCTIONS TO VISIBILITY.


SDZ038>040-050-052>070-071400-
SOUTHEAST SOUTH DAKOTA

CITY           SKY/WX    TMP DP  RH WIND       PRES   REMARKS
BROOKINGS      CLOUDY    34  26  72 W23G31    29.77S WCI  22
CHAMBERLAIN    MOCLDY    35  28  77 W18G26    29.96R WCI  24
HURON          CLOUDY    36  28  73 W22       29.86F
MADISON        FAIR      34  30  86 W24G33    29.82S WCI  21
MITCHELL       CLOUDY    36  28  73 W17       29.91S
SIOUX FALLS    MOCLDY    35  25  66 W16G29    29.85R WCI  25
WINNER         CLOUDY    37  24  59 W20       30.00S
YANKTON        MOCLDY    37  25  60 W21G28    29.92F
$$

MNZ071-072-080-081-089-090-097-098-071400-
SOUTHWEST MINNESOTA

CITY           SKY/WX    TMP DP  RH WIND       PRES   REMARKS
FAIRMONT       CLEAR     36  25  64 W21       29.74S
JACKSON        CLEAR     34  23  64 W23G30    29.76S WCI  22
LUVERNE        MOCLDY    36  28  75 W21       29.83S
MARSHALL       PTCLDY    36  25  64 W33G40    29.72F
MONTEVIDEO     PTCLDY    36  27  69 NW18G25   29.72S
PIPESTONE      PTCLDY    36  21  55 NW18      29.79S
REDWOOD FALLS  CLEAR     35  25  66 W24G31    29.71R WCI  23
TRACY          CLEAR     35  26  68 W16G25    29.75S WCI  25
WINDOM         CLEAR     32  25  74 W20       29.75S WCI  20
WORTHINGTON    PTCLDY    34  23  64 W24       29.79F WCI  21
$$

IAZ001>003-012>014-020>022-031-032-NEZ013-014-SDZ071-071400-
NORTHWEST IOWA

CITY           SKY/WX    TMP DP  RH WIND       PRES   REMARKS
CHEROKEE       CLEAR     33  26  75 NW14G21   29.86S WCI  24
DENISON        CLEAR     36  27  69 W14       29.88S
ESTHERVILLE    CLEAR     33  26  75 W25       29.78R WCI  20
LE MARS        PTCLDY    34  21  60 W14       29.90R WCI  24
ORANGE CITY    PTCLDY    32  28  86 W17       29.86S WCI  21
SHELDON        MOCLDY    34  27  75 W17G24    29.82S WCI  23
SIOUX CITY     CLEAR     37  24  59 NW15      29.92R
SPENCER        CLEAR     32  23  69 W20       29.81S WCI  20
STORM LAKE     CLEAR     32  28  86 NW21      29.85R WCI  20
$$

ABBREVIATIONS USED IN REMARKS
   TC - TEMPERATURE IN CELSIUS
  WCI - WIND CHILL INDEX
   HX - HEAT INDEX
  VSB - VISIBILITY




USA.gov is the U.S. government's official web portal to all federal, state and local government web resources and services.